STARLINK-32862, 62864

Orbit data source: Space-Track

STARLINK-32862, 62864 is a payload satellite owned by SpaceX/Seattle (US) in LEO that was launched on Sat, 01 Feb 2025 UTC via an FALCON 9 launch vehicle from the Air Force Western Test Range (AFWTR). Payload-class satellites include a variety of spacecraft equipped with specific instruments for various scientific and technological missions. These include communications satellites like Starlink; space stations such as the ISS; scientific satellites like the Hubble; Earth observation satellites from companies like Planet Labs, Umbra, and HawkEye 360; GPS; miniature CubeSats for education and research; and military/defense satellites.

Loading next visibility...
Identifier
62864, 2025-022L
Orbit
LEO
Last TLE update
1 day ago
Origin
Manufacturer
SpaceX/Seattle
Mission
Operational Commercial Communications
Bus & Motor
STARLINK V2M, Unknown motor
Mass
730 kg wet, ~700 kg dry
Launch date (UTC)
2025-02-01 (5 months ago)
Launch vehicle
FALCON 9
Launch site
Air Force Western Test Range (AFWTR)
Object type
Payload
Rocket body
Debris
Shape & HBR
Box + 2 Pan, 29 m
Radar Cross Section
33.884 m², Large (>1 m²)

Expand to show TLE details & history

TLE from 1 day ago
0 STARLINK-32862
1 62864U 25022L   25181.32932677  .00013541  00000-0  34793-3 0  9996
2 62864  53.1567 222.4464 0001148  85.3533 274.7602 15.39618202 23257
Epoch: 2025-06-30T07:54Z
TLE epoch observation values (Epoch: 2025-06-30T07:54:13.832Z)
Latitude
-0.00012°
Longitude
-174.75202°
Altitude
448.076 km
Speed
7.645 km/s
True Right ascension
14h 49m 47s
True Declination
0° 00' 00"
Sunlit
Object was in full shadow at epoch
Visualization orbit readout
Latitude
-12.97892°
Longitude
170.47731°
Altitude
450.833 km
Speed
7.642 km/s
Apparent Right ascension
11h 37m 13s
Apparent Declination
-32° 24' 31"
Sunlit
Object is in full shadow
Visualization observer readout
Local Sidereal Time
20:23:48
Azimuth
265.371° W
Elevation
-50.732°
Doppler factor
1
Orbital elements
Apogee altitude
448.279 km
Perigee altitude
446.712 km
Semi-major axis
6,825.632 km
Eccentricity
0.00011
Inclination
53.1567°
RAAN
222.4464°
Arg. of periapsis
85.3533°
True anomaly
Unknown
Mean anomaly
274.7602°
Eccentric anomaly
Unknown
Mean motion
3.84883 °/min
Orbital period
93.53 mins
BSTAR
0.00034793
Loading maneuver chart data...
Loading SW <> Apogee altitude chart data...
Loading historical data...
Loading historical data...
Loading historical data...
Loading historical data...
Loading historical data...
Loading historical data...
Loading historical data...

STARLINK-32862 Visibility forecast

Observer location: undefined°, undefined°

Span
Click to sort rows by Start time (UTC) header in descending order
Start Az.
Max El. time (UTC)
Max El. Az.
Max El.
End time (UTC)
End Az.
4 mins2025-07-01 10:50:38.382Z341.792° N2025-07-01 10:52:38.382Z22.694° NE19.555°2025-07-01 10:54:38.382Z66.118° ENE
5 mins2025-07-01 12:28:38.382Z294.62° NW2025-07-01 12:30:38.382Z191.295° SSW39.939°2025-07-01 12:33:38.382Z142.947° SSE
5 mins2025-07-02 05:17:38.382Z244.209° WSW2025-07-02 05:19:38.382Z6.16° NNE41.485°2025-07-02 05:22:38.382Z45.804° ENE
|